TimeHST,TemperatureF,Dew PointF,Humidity,Sea Level PressureIn,VisibilityMPH,Wind Direction,Wind SpeedMPH,Gust SpeedMPH,PrecipitationIn,Events,Conditions,WindDirDegrees,DateUTC
12:56 AM,73.0,61.0,66,30.12,10.0,North,8.1,-,N/A,,Overcast,10,2013-05-11 10:56:00
1:56 AM,73.0,61.0,66,30.09,10.0,North,11.5,-,N/A,,Mostly Cloudy,10,2013-05-11 11:56:00
2:56 AM,70.0,60.1,71,30.08,10.0,NNE,6.9,-,N/A,,Clear,20,2013-05-11 12:56:00
3:56 AM,69.1,57.9,68,30.08,10.0,NNE,5.8,-,N/A,,Clear,20,2013-05-11 13:56:00
4:56 AM,69.1,57.9,68,30.08,10.0,NNE,5.8,-,N/A,,Clear,30,2013-05-11 14:56:00
5:56 AM,66.9,57.0,70,30.08,10.0,NNE,3.5,-,N/A,,Clear,30,2013-05-11 15:56:00
6:56 AM,69.1,57.9,68,30.10,10.0,NE,3.5,-,N/A,,Clear,50,2013-05-11 16:56:00
7:56 AM,75.0,59.0,57,30.12,10.0,NE,3.5,-,N/A,,Clear,50,2013-05-11 17:56:00
8:56 AM,77.0,61.0,58,30.12,10.0,North,8.1,-,N/A,,Clear,350,2013-05-11 18:56:00
9:56 AM,79.0,63.0,58,30.12,10.0,North,16.1,-,N/A,,Clear,360,2013-05-11 19:56:00
10:56 AM,81.0,63.0,54,30.12,10.0,North,20.7,26.5,N/A,,Partly Cloudy,360,2013-05-11 20:56:00
11:56 AM,81.0,63.0,54,30.11,10.0,North,21.9,28.8,N/A,,Clear,360,2013-05-11 21:56:00
12:56 PM,80.1,63.0,56,30.09,10.0,North,25.3,34.5,N/A,,Clear,10,2013-05-11 22:56:00
1:56 PM,80.1,62.1,54,30.08,10.0,North,25.3,32.2,N/A,,Clear,10,2013-05-11 23:56:00
2:56 PM,80.1,62.1,54,30.06,10.0,North,24.2,32.2,N/A,,Clear,360,2013-05-12 00:56:00
3:56 PM,79.0,62.1,56,30.05,10.0,North,23.0,34.5,N/A,,Clear,360,2013-05-12 01:56:00
4:56 PM,79.0,61.0,54,30.04,10.0,North,19.6,27.6,N/A,,Clear,10,2013-05-12 02:56:00
5:56 PM,78.1,61.0,56,30.05,10.0,North,16.1,26.5,N/A,,Scattered Clouds,10,2013-05-12 03:56:00
6:56 PM,75.9,61.0,60,30.07,10.0,North,11.5,18.4,N/A,,Mostly Cloudy,10,2013-05-12 04:56:00
7:56 PM,75.0,60.1,60,30.09,10.0,North,13.8,-,N/A,,Clear,10,2013-05-12 05:56:00
8:56 PM,73.0,59.0,61,30.11,10.0,NNE,8.1,-,N/A,,Clear,20,2013-05-12 06:56:00
9:56 PM,73.0,59.0,61,30.12,10.0,NNE,4.6,-,N/A,,Overcast,30,2013-05-12 07:56:00
10:56 PM,72.0,60.1,66,30.13,10.0,North,4.6,-,N/A,,Mostly Cloudy,10,2013-05-12 08:56:00
11:56 PM,71.1,59.0,66,30.12,10.0,Calm,Calm,-,N/A,,Mostly Cloudy,0,2013-05-12 09:56:00